Погода в Аккуавиве

Сан-Марино     43°56′21″N   12°26′33″E
темп.,
°C
ветер,
м/с
пор.,
м/с
влажн.,
%
обл.,
%
осадки,
мм/ч
давл.,
гПа
погр.,
м
26 февраля, пт
пт2601:00+11зюз11710 0.0 103022
04:00+10зюз11720 0.0 102922
07:00+9зюз12700 0.0 102822
10:00+14зсз11560 0.0 1029196
13:00+16ссв21530 0.0 1027418
16:00+15в22600 0.0 1025215
19:00+12ююв11710 0.0 102423
22:00+12юз11740 0.0 102523
27 февраля, сб
сб2701:00+11зюз12700 0.0 102422
04:00+10зюз11700 0.0 102222
07:00+9зсз11690 0.0 102323
10:00+13ссз23600 0.0 1024318
13:00+14ссв45710 0.0 1025660
16:00+12св447211 0.0 1025465
19:00+9всв48825 0.0 1026293
22:00+9ссв37717 0.0 1028242
28 февраля, вс
вс2801:00+8всв47764 0.0 1029234
04:00+7всв510740 0.0 1029390
07:00+7всв611720 0.0 1029586
10:00+9всв69600 0.0 1030978
13:00+9св56560 0.0 1030906
16:00+9св23490 0.0 1029842
19:00+7зсз11570 0.0 1029150
22:00+6з22610 0.0 103071
1 марта, пн
пн101:00+5з23660 0.0 103176
04:00+4з22690 0.0 103071
07:00+4з23730 0.0 103066
10:00+8сз34630 0.0 1031498
13:00+11с34510 0.0 1031762
16:00+10ссв33590 0.0 1030460
19:00+7з01690 0.0 103163
22:00+6зюз22600 0.0 103235
2 марта, вт
вт201:00+6зюз22550 0.0 103234
04:00+5зюз22560 0.0 103237
07:00+5зюз22570 0.0 103237
10:00+9ссз22480 0.0 1033388
13:00+12св22460 0.0 1034684
16:00+11всв22500 0.0 1033506
19:00+8юв11630 0.0 103451
22:00+7ююз11630 0.0 103531